owner,sensor,date,latitude,longitude,vertical_datum,sea_water_practical_salinity,qcFlag 
DISL,ioos:station:DISL:BSCA:1,2014-03-01T00:00:00Z,30.3288,-87.8293,1.855,6.57,1111122 
DISL,ioos:station:DISL:BSCA:1,2014-03-01T00:30:00Z,30.3288,-87.8293,1.88,6.59,1111122 
DISL,ioos:station:DISL:BSCA:1,2014-03-01T01:00:00Z,30.3288,-87.8293,1.882,6.53,1111122 
DISL,ioos:station:DISL:BSCA:1,2014-03-01T01:30:00Z,30.3288,-87.8293,1.878,6.51,1111122 
DISL,ioos:station:DISL:BSCA:1,2014-03-01T02:00:00Z,30.3288,-87.8293,1.883,6.5,1111122 
DISL,ioos:station:DISL:BSCA:1,2014-03-01T02:30:00Z,30.3288,-87.8293,1.886,6.5,1111122 
DISL,ioos:station:DISL:BSCA:1,2014-03-01T03:00:00Z,30.3288,-87.8293,1.909,6.53,1111122 
DISL,ioos:station:DISL:BSCA:1,2014-03-01T03:30:00Z,30.3288,-87.8293,1.939,6.5,1111122 
DISL,ioos:station:DISL:BSCA:1,2014-03-01T04:00:00Z,30.3288,-87.8293,1.966,6.38,1111122 
DISL,ioos:station:DISL:BSCA:1,2014-03-01T04:30:00Z,30.3288,-87.8293,1.987,6.35,1111122 
DISL,ioos:station:DISL:BSCA:1,2014-03-01T05:00:00Z,30.3288,-87.8293,2.008,6.35,1111122 
DISL,ioos:station:DISL:BSCA:1,2014-03-01T05:30:00Z,30.3288,-87.8293,1.995,6.38,1111122 
DISL,ioos:station:DISL:BSCA:1,2014-03-01T06:00:00Z,30.3288,-87.8293,1.98,6.31,1111122 
DISL,ioos:station:DISL:BSCA:1,2014-03-01T06:30:00Z,30.3288,-87.8293,1.95,6.36,1111122 
DISL,ioos:station:DISL:BSCA:1,2014-03-01T07:00:00Z,30.3288,-87.8293,1.952,6.34,1111122 
DISL,ioos:station:DISL:BSCA:1,2014-03-01T07:30:00Z,30.3288,-87.8293,1.943,6.36,1111122 
DISL,ioos:station:DISL:BSCA:1,2014-03-01T08:00:00Z,30.3288,-87.8293,1.938,6.33,1111122 
DISL,ioos:station:DISL:BSCA:1,2014-03-01T08:30:00Z,30.3288,-87.8293,1.899,6.33,1111122 
DISL,ioos:station:DISL:BSCA:1,2014-03-01T09:00:00Z,30.3288,-87.8293,1.892,6.33,1111122 
DISL,ioos:station:DISL:BSCA:1,2014-03-01T09:30:00Z,30.3288,-87.8293,1.844,6.37,1111122 
DISL,ioos:station:DISL:BSCA:1,2014-03-01T10:00:00Z,30.3288,-87.8293,1.802,6.31,1111122 
DISL,ioos:station:DISL:BSCA:1,2014-03-01T10:30:00Z,30.3288,-87.8293,1.776,6.29,1111122 
DISL,ioos:station:DISL:BSCA:1,2014-03-01T11:00:00Z,30.3288,-87.8293,1.754,6.28,1111122 
DISL,ioos:station:DISL:BSCA:1,2014-03-01T11:30:00Z,30.3288,-87.8293,1.739,6.28,1111122 
DISL,ioos:station:DISL:BSCA:1,2014-03-01T12:00:00Z,30.3288,-87.8293,1.744,6.28,1111122 
DISL,ioos:station:DISL:BSCA:1,2014-03-01T12:30:00Z,30.3288,-87.8293,1.709,6.33,1111122 
DISL,ioos:station:DISL:BSCA:1,2014-03-01T13:00:00Z,30.3288,-87.8293,1.696,6.28,1111122 
DISL,ioos:station:DISL:BSCA:1,2014-03-01T13:30:00Z,30.3288,-87.8293,1.671,6.27,1111122 
DISL,ioos:station:DISL:BSCA:1,2014-03-01T14:00:00Z,30.3288,-87.8293,1.647,6.29,1111122 
DISL,ioos:station:DISL:BSCA:1,2014-03-01T14:30:00Z,30.3288,-87.8293,1.637,6.26,1111122 
DISL,ioos:station:DISL:BSCA:1,2014-03-01T15:00:00Z,30.3288,-87.8293,1.633,6.24,1111122 
DISL,ioos:station:DISL:BSCA:1,2014-03-01T15:30:00Z,30.3288,-87.8293,1.629,6.31,1111122 
DISL,ioos:station:DISL:BSCA:1,2014-03-01T16:00:00Z,30.3288,-87.8293,1.639,6.27,1111122 
DISL,ioos:station:DISL:BSCA:1,2014-03-01T16:30:00Z,30.3288,-87.8293,1.633,6.28,1111122 
DISL,ioos:station:DISL:BSCA:1,2014-03-01T17:00:00Z,30.3288,-87.8293,1.649,6.35,1111122 
DISL,ioos:station:DISL:BSCA:1,2014-03-01T17:30:00Z,30.3288,-87.8293,1.665,6.46,1111122 
DISL,ioos:station:DISL:BSCA:1,2014-03-01T18:00:00Z,30.3288,-87.8293,1.689,6.44,1111122 
DISL,ioos:station:DISL:BSCA:1,2014-03-01T18:30:00Z,30.3288,-87.8293,1.709,6.49,1111122 
DISL,ioos:station:DISL:BSCA:1,2014-03-01T19:00:00Z,30.3288,-87.8293,1.714,6.42,1111122 
DISL,ioos:station:DISL:BSCA:1,2014-03-01T19:30:00Z,30.3288,-87.8293,1.723,6.25,1111122 
DISL,ioos:station:DISL:BSCA:1,2014-03-01T20:00:00Z,30.3288,-87.8293,1.723,6.27,1111122 
DISL,ioos:station:DISL:BSCA:1,2014-03-01T20:30:00Z,30.3288,-87.8293,1.726,6.41,1111122 
DISL,ioos:station:DISL:BSCA:1,2014-03-01T21:00:00Z,30.3288,-87.8293,1.721,6.22,1111122 
DISL,ioos:station:DISL:BSCA:1,2014-03-01T21:30:00Z,30.3288,-87.8293,1.708,6.18,1111122 
DISL,ioos:station:DISL:BSCA:1,2014-03-01T22:00:00Z,30.3288,-87.8293,1.704,6.17,1111122 
DISL,ioos:station:DISL:BSCA:1,2014-03-01T22:30:00Z,30.3288,-87.8293,1.705,6.17,1111122 
DISL,ioos:station:DISL:BSCA:1,2014-03-01T23:00:00Z,30.3288,-87.8293,1.709,6.16,1111122 
DISL,ioos:station:DISL:BSCA:1,2014-03-01T23:30:00Z,30.3288,-87.8293,1.708,6.15,1111122 
DISL,ioos:station:DISL:BSCA:1,2014-03-02T00:00:00Z,30.3288,-87.8293,1.708,6.12,1111122 
DISL,ioos:station:DISL:BSCA:1,2014-03-02T00:30:00Z,30.3288,-87.8293,1.727,6.11,1111122 
DISL,ioos:station:DISL:BSCA:1,2014-03-02T01:00:00Z,30.3288,-87.8293,1.735,6.1,1111122 
DISL,ioos:station:DISL:BSCA:1,2014-03-02T01:30:00Z,30.3288,-87.8293,1.746,6.09,1111122 
DISL,ioos:station:DISL:BSCA:1,2014-03-02T02:00:00Z,30.3288,-87.8293,1.77,6.08,1111122 
DISL,ioos:station:DISL:BSCA:1,2014-03-02T02:30:00Z,30.3288,-87.8293,1.785,6.04,1111122 
DISL,ioos:station:DISL:BSCA:1,2014-03-02T03:00:00Z,30.3288,-87.8293,1.812,6.01,1111122 
DISL,ioos:station:DISL:BSCA:1,2014-03-02T03:30:00Z,30.3288,-87.8293,1.833,6.03,1111122 
DISL,ioos:station:DISL:BSCA:1,2014-03-02T04:00:00Z,30.3288,-87.8293,1.849,6.0,1111122 
DISL,ioos:station:DISL:BSCA:1,2014-03-02T04:30:00Z,30.3288,-87.8293,1.86,6.0,1111122 
DISL,ioos:station:DISL:BSCA:1,2014-03-02T05:00:00Z,30.3288,-87.8293,1.874,5.96,1111122 
DISL,ioos:station:DISL:BSCA:1,2014-03-02T05:30:00Z,30.3288,-87.8293,1.867,5.95,1111122 
DISL,ioos:station:DISL:BSCA:1,2014-03-02T06:00:00Z,30.3288,-87.8293,1.893,5.95,1111122 
DISL,ioos:station:DISL:BSCA:1,2014-03-02T06:30:00Z,30.3288,-87.8293,1.905,5.95,1111122 
DISL,ioos:station:DISL:BSCA:1,2014-03-02T07:00:00Z,30.3288,-87.8293,1.905,5.95,1111122 
DISL,ioos:station:DISL:BSCA:1,2014-03-02T07:30:00Z,30.3288,-87.8293,1.917,5.96,1111122 
DISL,ioos:station:DISL:BSCA:1,2014-03-02T08:00:00Z,30.3288,-87.8293,1.917,5.94,1111122 
DISL,ioos:station:DISL:BSCA:1,2014-03-02T08:30:00Z,30.3288,-87.8293,1.899,5.95,1111122 
DISL,ioos:station:DISL:BSCA:1,2014-03-02T09:00:00Z,30.3288,-87.8293,1.89,5.94,1111122 
DISL,ioos:station:DISL:BSCA:1,2014-03-02T09:30:00Z,30.3288,-87.8293,1.856,5.94,1111122 
DISL,ioos:station:DISL:BSCA:1,2014-03-02T10:00:00Z,30.3288,-87.8293,1.821,5.94,1111122 
DISL,ioos:station:DISL:BSCA:1,2014-03-02T10:30:00Z,30.3288,-87.8293,1.788,5.93,1111122 
DISL,ioos:station:DISL:BSCA:1,2014-03-02T11:00:00Z,30.3288,-87.8293,1.767,5.92,1111122 
DISL,ioos:station:DISL:BSCA:1,2014-03-02T11:30:00Z,30.3288,-87.8293,1.741,5.92,1111122 
DISL,ioos:station:DISL:BSCA:1,2014-03-02T12:00:00Z,30.3288,-87.8293,1.731,5.93,1111122 
DISL,ioos:station:DISL:BSCA:1,2014-03-02T12:30:00Z,30.3288,-87.8293,1.722,5.92,1111122 
DISL,ioos:station:DISL:BSCA:1,2014-03-02T13:00:00Z,30.3288,-87.8293,1.709,5.93,1111122 
DISL,ioos:station:DISL:BSCA:1,2014-03-02T13:30:00Z,30.3288,-87.8293,1.711,5.92,1111122 
DISL,ioos:station:DISL:BSCA:1,2014-03-02T14:00:00Z,30.3288,-87.8293,1.711,5.92,1111122 
DISL,ioos:station:DISL:BSCA:1,2014-03-02T14:30:00Z,30.3288,-87.8293,1.716,5.9,1111122 
DISL,ioos:station:DISL:BSCA:1,2014-03-02T15:00:00Z,30.3288,-87.8293,1.723,5.89,1111122 
DISL,ioos:station:DISL:BSCA:1,2014-03-02T15:30:00Z,30.3288,-87.8293,1.729,5.91,1111122 
DISL,ioos:station:DISL:BSCA:1,2014-03-02T16:00:00Z,30.3288,-87.8293,1.736,6.0,1111122 
DISL,ioos:station:DISL:BSCA:1,2014-03-02T16:30:00Z,30.3288,-87.8293,1.738,5.89,1111122 
DISL,ioos:station:DISL:BSCA:1,2014-03-02T17:00:00Z,30.3288,-87.8293,1.754,5.88,1111122 
DISL,ioos:station:DISL:BSCA:1,2014-03-02T17:30:00Z,30.3288,-87.8293,1.765,5.88,1111122 
DISL,ioos:station:DISL:BSCA:1,2014-03-02T18:00:00Z,30.3288,-87.8293,1.781,5.88,1111122 
DISL,ioos:station:DISL:BSCA:1,2014-03-02T18:30:00Z,30.3288,-87.8293,1.797,5.85,1111122 
DISL,ioos:station:DISL:BSCA:1,2014-03-02T19:00:00Z,30.3288,-87.8293,1.806,5.87,1111122 
DISL,ioos:station:DISL:BSCA:1,2014-03-02T19:30:00Z,30.3288,-87.8293,1.811,5.81,1111122 
DISL,ioos:station:DISL:BSCA:1,2014-03-02T20:00:00Z,30.3288,-87.8293,1.797,5.82,1111122 
DISL,ioos:station:DISL:BSCA:1,2014-03-02T20:30:00Z,30.3288,-87.8293,1.794,5.83,1111122 
DISL,ioos:station:DISL:BSCA:1,2014-03-02T21:00:00Z,30.3288,-87.8293,1.782,5.81,1111122 
DISL,ioos:station:DISL:BSCA:1,2014-03-02T21:30:00Z,30.3288,-87.8293,1.779,5.83,1111122 
DISL,ioos:station:DISL:BSCA:1,2014-03-02T22:00:00Z,30.3288,-87.8293,1.748,5.82,1111122 
DISL,ioos:station:DISL:BSCA:1,2014-03-02T22:30:00Z,30.3288,-87.8293,1.725,5.83,1111122 
DISL,ioos:station:DISL:BSCA:1,2014-03-02T23:00:00Z,30.3288,-87.8293,1.69,5.82,1111122 
DISL,ioos:station:DISL:BSCA:1,2014-03-02T23:30:00Z,30.3288,-87.8293,1.676,5.71,1111122 
DISL,ioos:station:DISL:BSCA:1,2014-03-03T00:00:00Z,30.3288,-87.8293,1.67,5.67,1111122 
DISL,ioos:station:DISL:BSCA:1,2014-03-03T00:30:00Z,30.3288,-87.8293,1.662,5.65,1111122 
DISL,ioos:station:DISL:BSCA:1,2014-03-03T01:00:00Z,30.3288,-87.8293,1.672,5.63,1111122 
DISL,ioos:station:DISL:BSCA:1,2014-03-03T01:30:00Z,30.3288,-87.8293,1.677,5.66,1111122 
DISL,ioos:station:DISL:BSCA:1,2014-03-03T02:00:00Z,30.3288,-87.8293,1.7,5.68,1111122 
DISL,ioos:station:DISL:BSCA:1,2014-03-03T02:30:00Z,30.3288,-87.8293,1.744,5.65,1111122 
DISL,ioos:station:DISL:BSCA:1,2014-03-03T03:00:00Z,30.3288,-87.8293,1.755,5.64,1111122 
DISL,ioos:station:DISL:BSCA:1,2014-03-03T03:30:00Z,30.3288,-87.8293,1.797,5.58,1111122 
DISL,ioos:station:DISL:BSCA:1,2014-03-03T04:00:00Z,30.3288,-87.8293,1.815,5.53,1111122 
DISL,ioos:station:DISL:BSCA:1,2014-03-03T04:30:00Z,30.3288,-87.8293,1.828,5.48,1111122 
DISL,ioos:station:DISL:BSCA:1,2014-03-03T05:00:00Z,30.3288,-87.8293,1.836,5.51,1111122 
DISL,ioos:station:DISL:BSCA:1,2014-03-03T05:30:00Z,30.3288,-87.8293,1.847,5.55,1111122 
DISL,ioos:station:DISL:BSCA:1,2014-03-03T06:00:00Z,30.3288,-87.8293,1.826,5.52,1111122 
DISL,ioos:station:DISL:BSCA:1,2014-03-03T06:30:00Z,30.3288,-87.8293,1.892,5.52,1111122 
DISL,ioos:station:DISL:BSCA:1,2014-03-03T07:00:00Z,30.3288,-87.8293,1.941,5.47,1111122 
DISL,ioos:station:DISL:BSCA:1,2014-03-03T07:30:00Z,30.3288,-87.8293,1.958,5.53,1111122 
DISL,ioos:station:DISL:BSCA:1,2014-03-03T08:00:00Z,30.3288,-87.8293,1.98,5.48,1111122 
DISL,ioos:station:DISL:BSCA:1,2014-03-03T08:30:00Z,30.3288,-87.8293,1.976,5.38,1111122 
DISL,ioos:station:DISL:BSCA:1,2014-03-03T09:00:00Z,30.3288,-87.8293,1.955,5.35,1111122 
DISL,ioos:station:DISL:BSCA:1,2014-03-03T09:30:00Z,30.3288,-87.8293,1.914,5.32,1111122 
DISL,ioos:station:DISL:BSCA:1,2014-03-03T10:00:00Z,30.3288,-87.8293,1.893,5.58,1111122 
DISL,ioos:station:DISL:BSCA:1,2014-03-03T10:30:00Z,30.3288,-87.8293,1.854,5.62,1111122 
DISL,ioos:station:DISL:BSCA:1,2014-03-03T11:00:00Z,30.3288,-87.8293,1.821,5.59,1111122 
DISL,ioos:station:DISL:BSCA:1,2014-03-03T11:30:00Z,30.3288,-87.8293,1.862,5.55,1111122 
DISL,ioos:station:DISL:BSCA:1,2014-03-03T12:00:00Z,30.3288,-87.8293,1.851,5.5,1111122 
DISL,ioos:station:DISL:BSCA:1,2014-03-03T12:30:00Z,30.3288,-87.8293,1.85,5.49,1111122 
DISL,ioos:station:DISL:BSCA:1,2014-03-03T13:00:00Z,30.3288,-87.8293,1.876,5.43,1111122 
DISL,ioos:station:DISL:BSCA:1,2014-03-03T13:30:00Z,30.3288,-87.8293,1.885,5.4,1111122 
DISL,ioos:station:DISL:BSCA:1,2014-03-03T14:00:00Z,30.3288,-87.8293,1.882,5.38,1111122 
DISL,ioos:station:DISL:BSCA:1,2014-03-03T14:30:00Z,30.3288,-87.8293,1.911,5.39,1111122 
DISL,ioos:station:DISL:BSCA:1,2014-03-03T15:00:00Z,30.3288,-87.8293,1.914,5.4,1111122 
DISL,ioos:station:DISL:BSCA:1,2014-03-03T15:30:00Z,30.3288,-87.8293,1.954,5.4,1111122 
DISL,ioos:station:DISL:BSCA:1,2014-03-03T16:00:00Z,30.3288,-87.8293,2.028,5.4,1111122 
DISL,ioos:station:DISL:BSCA:1,2014-03-03T16:30:00Z,30.3288,-87.8293,2.219,5.37,1111122 
DISL,ioos:station:DISL:BSCA:1,2014-03-03T17:00:00Z,30.3288,-87.8293,2.112,5.35,1111122 
DISL,ioos:station:DISL:BSCA:1,2014-03-03T17:30:00Z,30.3288,-87.8293,1.994,5.38,1111122 
DISL,ioos:station:DISL:BSCA:1,2014-03-03T18:00:00Z,30.3288,-87.8293,1.901,5.39,1111122 
DISL,ioos:station:DISL:BSCA:1,2014-03-03T18:30:00Z,30.3288,-87.8293,1.828,5.44,1111122 
DISL,ioos:station:DISL:BSCA:1,2014-03-03T19:00:00Z,30.3288,-87.8293,1.802,5.43,1111122 
DISL,ioos:station:DISL:BSCA:1,2014-03-03T19:30:00Z,30.3288,-87.8293,1.757,5.45,1111122 
DISL,ioos:station:DISL:BSCA:1,2014-03-03T20:00:00Z,30.3288,-87.8293,1.72,5.49,1111122 
DISL,ioos:station:DISL:BSCA:1,2014-03-03T20:30:00Z,30.3288,-87.8293,1.69,5.57,1111122 
DISL,ioos:station:DISL:BSCA:1,2014-03-03T21:00:00Z,30.3288,-87.8293,1.708,5.67,1111122 
DISL,ioos:station:DISL:BSCA:1,2014-03-03T21:30:00Z,30.3288,-87.8293,1.717,5.67,1111122 
DISL,ioos:station:DISL:BSCA:1,2014-03-03T22:00:00Z,30.3288,-87.8293,1.722,5.61,1111122 
DISL,ioos:station:DISL:BSCA:1,2014-03-03T22:30:00Z,30.3288,-87.8293,1.706,5.68,1111122 
DISL,ioos:station:DISL:BSCA:1,2014-03-03T23:00:00Z,30.3288,-87.8293,1.674,5.76,1111122 
DISL,ioos:station:DISL:BSCA:1,2014-03-03T23:30:00Z,30.3288,-87.8293,1.656,5.91,1111122 
DISL,ioos:station:DISL:BSCA:1,2014-03-04T00:00:00Z,30.3288,-87.8293,1.615,5.82,1111122 
DISL,ioos:station:DISL:BSCA:1,2014-03-04T00:30:00Z,30.3288,-87.8293,1.604,5.74,1111122 
DISL,ioos:station:DISL:BSCA:1,2014-03-04T01:00:00Z,30.3288,-87.8293,1.587,5.65,1111122 
DISL,ioos:station:DISL:BSCA:1,2014-03-04T01:30:00Z,30.3288,-87.8293,1.575,5.63,1111122 
DISL,ioos:station:DISL:BSCA:1,2014-03-04T02:00:00Z,30.3288,-87.8293,1.575,5.61,1111122 
DISL,ioos:station:DISL:BSCA:1,2014-03-04T02:30:00Z,30.3288,-87.8293,1.547,5.61,1111122 
DISL,ioos:station:DISL:BSCA:1,2014-03-04T03:00:00Z,30.3288,-87.8293,1.533,5.59,1111122 
DISL,ioos:station:DISL:BSCA:1,2014-03-04T03:30:00Z,30.3288,-87.8293,1.526,5.59,1111122 
DISL,ioos:station:DISL:BSCA:1,2014-03-04T04:00:00Z,30.3288,-87.8293,1.524,5.58,1111122 
DISL,ioos:station:DISL:BSCA:1,2014-03-04T04:30:00Z,30.3288,-87.8293,1.508,5.58,1111122 
DISL,ioos:station:DISL:BSCA:1,2014-03-04T05:00:00Z,30.3288,-87.8293,1.511,5.58,1111122 
DISL,ioos:station:DISL:BSCA:1,2014-03-04T05:30:00Z,30.3288,-87.8293,1.521,5.58,1111122 
DISL,ioos:station:DISL:BSCA:1,2014-03-04T06:00:00Z,30.3288,-87.8293,1.518,5.59,1111122 
DISL,ioos:station:DISL:BSCA:1,2014-03-04T06:30:00Z,30.3288,-87.8293,1.526,5.57,1111122 
DISL,ioos:station:DISL:BSCA:1,2014-03-04T07:00:00Z,30.3288,-87.8293,1.566,5.54,1111122 
DISL,ioos:station:DISL:BSCA:1,2014-03-04T07:30:00Z,30.3288,-87.8293,1.57,5.56,1111122 
DISL,ioos:station:DISL:BSCA:1,2014-03-04T08:00:00Z,30.3288,-87.8293,1.607,5.55,1111122 
DISL,ioos:station:DISL:BSCA:1,2014-03-04T08:30:00Z,30.3288,-87.8293,1.636,5.55,1111122 
DISL,ioos:station:DISL:BSCA:1,2014-03-04T09:00:00Z,30.3288,-87.8293,1.634,5.55,1111122 
DISL,ioos:station:DISL:BSCA:1,2014-03-04T09:30:00Z,30.3288,-87.8293,1.664,5.53,1111122 
DISL,ioos:station:DISL:BSCA:1,2014-03-04T10:00:00Z,30.3288,-87.8293,1.678,5.56,1111122 
DISL,ioos:station:DISL:BSCA:1,2014-03-04T10:30:00Z,30.3288,-87.8293,1.687,5.52,1111122 
DISL,ioos:station:DISL:BSCA:1,2014-03-04T11:00:00Z,30.3288,-87.8293,1.711,5.54,1111122 
DISL,ioos:station:DISL:BSCA:1,2014-03-04T11:30:00Z,30.3288,-87.8293,1.72,5.54,1111122 
DISL,ioos:station:DISL:BSCA:1,2014-03-04T12:00:00Z,30.3288,-87.8293,1.712,5.53,1111122 
DISL,ioos:station:DISL:BSCA:1,2014-03-04T12:30:00Z,30.3288,-87.8293,1.718,5.51,1111122 
DISL,ioos:station:DISL:BSCA:1,2014-03-04T13:00:00Z,30.3288,-87.8293,1.699,5.53,1111122 
DISL,ioos:station:DISL:BSCA:1,2014-03-04T13:30:00Z,30.3288,-87.8293,1.725,5.53,1111122 
DISL,ioos:station:DISL:BSCA:1,2014-03-04T14:00:00Z,30.3288,-87.8293,1.728,5.59,1111122 
DISL,ioos:station:DISL:BSCA:1,2014-03-04T14:30:00Z,30.3288,-87.8293,1.76,5.51,1111122 
DISL,ioos:station:DISL:BSCA:1,2014-03-04T15:00:00Z,30.3288,-87.8293,1.768,5.49,1111122 
DISL,ioos:station:DISL:BSCA:1,2014-03-04T15:30:00Z,30.3288,-87.8293,1.799,5.51,1111122 
DISL,ioos:station:DISL:BSCA:1,2014-03-04T16:00:00Z,30.3288,-87.8293,1.832,5.53,1111122 
DISL,ioos:station:DISL:BSCA:1,2014-03-04T16:30:00Z,30.3288,-87.8293,1.857,5.49,1111122 
DISL,ioos:station:DISL:BSCA:1,2014-03-04T17:00:00Z,30.3288,-87.8293,1.887,5.53,1111122 
DISL,ioos:station:DISL:BSCA:1,2014-03-04T17:30:00Z,30.3288,-87.8293,1.9,5.47,1111122 
DISL,ioos:station:DISL:BSCA:1,2014-03-04T18:00:00Z,30.3288,-87.8293,1.913,5.49,1111122 
DISL,ioos:station:DISL:BSCA:1,2014-03-04T18:30:00Z,30.3288,-87.8293,1.9,5.49,1111122 
DISL,ioos:station:DISL:BSCA:1,2014-03-04T19:00:00Z,30.3288,-87.8293,1.883,5.49,1111122 
DISL,ioos:station:DISL:BSCA:1,2014-03-04T19:30:00Z,30.3288,-87.8293,1.858,5.48,1111122 
DISL,ioos:station:DISL:BSCA:1,2014-03-04T20:00:00Z,30.3288,-87.8293,1.841,5.73,1111122 
DISL,ioos:station:DISL:BSCA:1,2014-03-04T20:30:00Z,30.3288,-87.8293,1.819,5.79,1111122 
DISL,ioos:station:DISL:BSCA:1,2014-03-04T21:00:00Z,30.3288,-87.8293,1.82,5.56,1111122 
DISL,ioos:station:DISL:BSCA:1,2014-03-04T21:30:00Z,30.3288,-87.8293,1.809,5.53,1111122 
DISL,ioos:station:DISL:BSCA:1,2014-03-04T22:00:00Z,30.3288,-87.8293,1.793,5.59,1111122 
DISL,ioos:station:DISL:BSCA:1,2014-03-04T22:30:00Z,30.3288,-87.8293,1.767,5.61,1111122 
DISL,ioos:station:DISL:BSCA:1,2014-03-04T23:00:00Z,30.3288,-87.8293,1.733,5.58,1111122 
DISL,ioos:station:DISL:BSCA:1,2014-03-04T23:30:00Z,30.3288,-87.8293,1.694,5.6,1111122 
DISL,ioos:station:DISL:BSCA:1,2014-03-05T00:00:00Z,30.3288,-87.8293,1.661,5.27,1111122 
DISL,ioos:station:DISL:BSCA:1,2014-03-05T00:30:00Z,30.3288,-87.8293,1.641,5.15,1111122 
DISL,ioos:station:DISL:BSCA:1,2014-03-05T01:00:00Z,30.3288,-87.8293,1.625,5.17,1111122 
DISL,ioos:station:DISL:BSCA:1,2014-03-05T01:30:00Z,30.3288,-87.8293,1.646,5.55,1111122 
DISL,ioos:station:DISL:BSCA:1,2014-03-05T02:00:00Z,30.3288,-87.8293,1.631,5.49,1111122 
DISL,ioos:station:DISL:BSCA:1,2014-03-05T02:30:00Z,30.3288,-87.8293,1.643,5.58,1111122 
DISL,ioos:station:DISL:BSCA:1,2014-03-05T03:00:00Z,30.3288,-87.8293,1.622,5.78,1111122 
DISL,ioos:station:DISL:BSCA:1,2014-03-05T03:30:00Z,30.3288,-87.8293,1.622,5.8,1111122 
DISL,ioos:station:DISL:BSCA:1,2014-03-05T04:00:00Z,30.3288,-87.8293,1.598,5.58,1111122 
DISL,ioos:station:DISL:BSCA:1,2014-03-05T04:30:00Z,30.3288,-87.8293,1.591,5.56,1111122 
DISL,ioos:station:DISL:BSCA:1,2014-03-05T05:00:00Z,30.3288,-87.8293,1.594,5.5,1111122 
DISL,ioos:station:DISL:BSCA:1,2014-03-05T05:30:00Z,30.3288,-87.8293,1.604,5.5,1111122 
DISL,ioos:station:DISL:BSCA:1,2014-03-05T06:00:00Z,30.3288,-87.8293,1.593,5.48,1111122 
DISL,ioos:station:DISL:BSCA:1,2014-03-05T06:30:00Z,30.3288,-87.8293,1.616,5.43,1111122 
DISL,ioos:station:DISL:BSCA:1,2014-03-05T07:00:00Z,30.3288,-87.8293,1.596,5.41,1111122 
DISL,ioos:station:DISL:BSCA:1,2014-03-05T07:30:00Z,30.3288,-87.8293,1.61,5.38,1111122 
DISL,ioos:station:DISL:BSCA:1,2014-03-05T08:00:00Z,30.3288,-87.8293,1.635,5.37,1111122 
DISL,ioos:station:DISL:BSCA:1,2014-03-05T08:30:00Z,30.3288,-87.8293,1.643,5.38,1111122 
DISL,ioos:station:DISL:BSCA:1,2014-03-05T09:00:00Z,30.3288,-87.8293,1.661,5.4,1111122 
DISL,ioos:station:DISL:BSCA:1,2014-03-05T09:30:00Z,30.3288,-87.8293,1.68,5.42,1111122 
DISL,ioos:station:DISL:BSCA:1,2014-03-05T10:00:00Z,30.3288,-87.8293,1.719,5.42,1111122 
DISL,ioos:station:DISL:BSCA:1,2014-03-05T10:30:00Z,30.3288,-87.8293,1.718,5.43,1111122 
DISL,ioos:station:DISL:BSCA:1,2014-03-05T11:00:00Z,30.3288,-87.8293,1.763,5.43,1111122 
DISL,ioos:station:DISL:BSCA:1,2014-03-05T11:30:00Z,30.3288,-87.8293,1.758,5.42,1111122 
DISL,ioos:station:DISL:BSCA:1,2014-03-05T12:00:00Z,30.3288,-87.8293,1.754,5.42,1111122 
DISL,ioos:station:DISL:BSCA:1,2014-03-05T12:30:00Z,30.3288,-87.8293,1.773,5.46,1111122 
DISL,ioos:station:DISL:BSCA:1,2014-03-05T13:00:00Z,30.3288,-87.8293,1.772,5.46,1111122 
DISL,ioos:station:DISL:BSCA:1,2014-03-05T13:30:00Z,30.3288,-87.8293,1.78,5.45,1111122 
DISL,ioos:station:DISL:BSCA:1,2014-03-05T14:00:00Z,30.3288,-87.8293,1.772,5.48,1111122 
DISL,ioos:station:DISL:BSCA:1,2014-03-05T14:30:00Z,30.3288,-87.8293,1.8,5.53,1111122 
DISL,ioos:station:DISL:BSCA:1,2014-03-05T15:00:00Z,30.3288,-87.8293,1.786,5.46,1111122 
DISL,ioos:station:DISL:BSCA:1,2014-03-05T15:30:00Z,30.3288,-87.8293,1.811,5.5,1111122 
DISL,ioos:station:DISL:BSCA:1,2014-03-05T16:00:00Z,30.3288,-87.8293,1.818,5.5,1111122 
DISL,ioos:station:DISL:BSCA:1,2014-03-05T16:30:00Z,30.3288,-87.8293,1.856,5.41,1111122 
DISL,ioos:station:DISL:BSCA:1,2014-03-05T17:00:00Z,30.3288,-87.8293,1.884,5.31,1111122 
DISL,ioos:station:DISL:BSCA:1,2014-03-05T17:30:00Z,30.3288,-87.8293,1.926,5.28,1111122 
DISL,ioos:station:DISL:BSCA:1,2014-03-05T18:00:00Z,30.3288,-87.8293,1.946,5.32,1111122 
DISL,ioos:station:DISL:BSCA:1,2014-03-05T18:30:00Z,30.3288,-87.8293,1.978,5.3,1111122 
DISL,ioos:station:DISL:BSCA:1,2014-03-05T19:00:00Z,30.3288,-87.8293,1.99,5.18,1111122 
DISL,ioos:station:DISL:BSCA:1,2014-03-05T19:30:00Z,30.3288,-87.8293,2.007,5.28,1111122 
DISL,ioos:station:DISL:BSCA:1,2014-03-05T20:00:00Z,30.3288,-87.8293,2.025,5.3,1111122 
DISL,ioos:station:DISL:BSCA:1,2014-03-05T20:30:00Z,30.3288,-87.8293,2.027,5.35,1111122 
DISL,ioos:station:DISL:BSCA:1,2014-03-05T21:00:00Z,30.3288,-87.8293,2.026,5.32,1111122 
DISL,ioos:station:DISL:BSCA:1,2014-03-05T21:30:00Z,30.3288,-87.8293,2.019,5.36,1111122 
DISL,ioos:station:DISL:BSCA:1,2014-03-05T22:00:00Z,30.3288,-87.8293,1.989,5.43,1111122 
DISL,ioos:station:DISL:BSCA:1,2014-03-05T22:30:00Z,30.3288,-87.8293,1.956,5.38,1111122 
DISL,ioos:station:DISL:BSCA:1,2014-03-05T23:00:00Z,30.3288,-87.8293,1.93,5.4,1111122 
DISL,ioos:station:DISL:BSCA:1,2014-03-05T23:30:00Z,30.3288,-87.8293,1.891,5.43,1111122 
DISL,ioos:station:DISL:BSCA:1,2014-03-06T00:00:00Z,30.3288,-87.8293,1.868,5.3,1111122 
DISL,ioos:station:DISL:BSCA:1,2014-03-06T00:30:00Z,30.3288,-87.8293,1.841,5.36,1111122 
DISL,ioos:station:DISL:BSCA:1,2014-03-06T01:00:00Z,30.3288,-87.8293,1.812,5.41,1111122 
DISL,ioos:station:DISL:BSCA:1,2014-03-06T01:30:00Z,30.3288,-87.8293,1.789,5.4,1111122 
DISL,ioos:station:DISL:BSCA:1,2014-03-06T02:00:00Z,30.3288,-87.8293,1.767,5.36,1111122 
DISL,ioos:station:DISL:BSCA:1,2014-03-06T02:30:00Z,30.3288,-87.8293,1.733,5.36,1111122 
DISL,ioos:station:DISL:BSCA:1,2014-03-06T03:00:00Z,30.3288,-87.8293,1.698,5.33,1111122 
DISL,ioos:station:DISL:BSCA:1,2014-03-06T03:30:00Z,30.3288,-87.8293,1.696,5.28,1111122 
DISL,ioos:station:DISL:BSCA:1,2014-03-06T04:00:00Z,30.3288,-87.8293,1.666,5.26,1111122 
DISL,ioos:station:DISL:BSCA:1,2014-03-06T04:30:00Z,30.3288,-87.8293,1.673,5.24,1111122 
DISL,ioos:station:DISL:BSCA:1,2014-03-06T05:00:00Z,30.3288,-87.8293,1.669,5.29,1111122 
DISL,ioos:station:DISL:BSCA:1,2014-03-06T05:30:00Z,30.3288,-87.8293,1.674,5.21,1111122 
DISL,ioos:station:DISL:BSCA:1,2014-03-06T06:00:00Z,30.3288,-87.8293,1.67,5.17,1111122 
DISL,ioos:station:DISL:BSCA:1,2014-03-06T06:30:00Z,30.3288,-87.8293,1.628,5.24,1111122 
DISL,ioos:station:DISL:BSCA:1,2014-03-06T07:00:00Z,30.3288,-87.8293,1.631,4.82,1111122 
DISL,ioos:station:DISL:BSCA:1,2014-03-06T07:30:00Z,30.3288,-87.8293,1.608,4.7,1111122 
DISL,ioos:station:DISL:BSCA:1,2014-03-06T08:00:00Z,30.3288,-87.8293,1.628,4.84,1111122 
DISL,ioos:station:DISL:BSCA:1,2014-03-06T08:30:00Z,30.3288,-87.8293,1.638,4.82,1111122 
DISL,ioos:station:DISL:BSCA:1,2014-03-06T09:00:00Z,30.3288,-87.8293,1.616,4.83,1111122 
DISL,ioos:station:DISL:BSCA:1,2014-03-06T09:30:00Z,30.3288,-87.8293,1.641,4.89,1111122 
DISL,ioos:station:DISL:BSCA:1,2014-03-06T10:00:00Z,30.3288,-87.8293,1.644,5.03,1111122 
DISL,ioos:station:DISL:BSCA:1,2014-03-06T10:30:00Z,30.3288,-87.8293,1.737,5.09,1111122 
DISL,ioos:station:DISL:BSCA:1,2014-03-06T11:00:00Z,30.3288,-87.8293,1.774,5.12,1111122 
DISL,ioos:station:DISL:BSCA:1,2014-03-06T11:30:00Z,30.3288,-87.8293,1.806,5.38,1111122 
DISL,ioos:station:DISL:BSCA:1,2014-03-06T12:00:00Z,30.3288,-87.8293,1.741,5.27,1111122 
DISL,ioos:station:DISL:BSCA:1,2014-03-06T12:30:00Z,30.3288,-87.8293,1.783,4.93,1111122 
DISL,ioos:station:DISL:BSCA:1,2014-03-06T13:00:00Z,30.3288,-87.8293,1.796,5.77,1111122 
DISL,ioos:station:DISL:BSCA:1,2014-03-06T13:30:00Z,30.3288,-87.8293,1.928,7.16,1111122 
DISL,ioos:station:DISL:BSCA:1,2014-03-06T14:00:00Z,30.3288,-87.8293,1.951,6.83,1111122 
DISL,ioos:station:DISL:BSCA:1,2014-03-06T14:30:00Z,30.3288,-87.8293,1.99,6.58,1111122 
DISL,ioos:station:DISL:BSCA:1,2014-03-06T15:00:00Z,30.3288,-87.8293,1.974,6.31,1111122 
DISL,ioos:station:DISL:BSCA:1,2014-03-06T15:30:00Z,30.3288,-87.8293,1.99,5.63,1111122 